Temperature
12 12 12 13 13 13 13 13 13 13 13 13 13 13 13 12 12 12 12 12 12 12 12 12 12 12 11 11 11 11 11 10 10 10 10 10 9 9 9 9 9 9 9
11 12 12 12 12 12 13 12 12 12 12 12 12 12 12 12 12 12 11 11 11 11 11 11 11 11 11 11 10 10 10 10 10 9 9 9 9 9 9 9 8 8 8
10 11 11 12 12 12 12 12 12 12 12 12 12 12 12 11 11 11 11 11 11 11 11 11 11 10 10 10 10 10 10 10 9 9 9 8 8 8 8 8 8 8 8
10 10 11 11 12 12 12 12 12 12 12 12 11 11 11 11 11 11 10 10 10 10 10 10 10 10 10 10 10 9 9 9 9 9 8 8 8 8 7 8 8 8 8
9 10 10 11 11 11 11 11 11 11 11 11 11 11 11 11 10 10 10 10 10 10 10 10 10 10 9 9 9 9 9 9 8 8 8 8 7 7 7 7 7 8 8
9 9 10 10 11 11 11 11 11 11 11 11 11 10 10 10 10 10 10 10 9 9 9 9 9 9 9 9 9 9 8 8 8 8 7 7 7 7 6 6 6 6 7
8 9 9 10 10 10 10 10 10 10 10 10 10 10 10 10 9 9 9 9 9 9 9 9 9 9 9 8 8 8 8 8 8 7 7 7 6 6 6 5 5 5 6
7 8 8 9 9 10 10 10 10 10 10 9 9 9 9 9 9 9 9 9 9 9 9 8 8 8 8 8 8 8 8 7 7 7 7 6 6 6 5 5 4 4 4
7 7 8 8 9 9 9 9 9 9 9 9 9 9 8 8 8 8 8 8 8 8 8 8 8 8 8 7 7 7 7 7 7 7 6 6 6 5 5 5 4 4 3
6 6 7 7 8 8 9 9 9 9 9 8 8 8 8 8 8 7 7 7 7 7 7 7 7 7 7 7 7 7 7 6 6 6 6 6 6 5 5 5 4 3 3
5 5 6 7 7 8 8 8 8 8 8 8 8 7 7 7 7 7 7 7 7 7 7 7 7 7 7 6 6 6 6 6 6 6 5 5 5 5 5 4 4 3 3
4 5 5 6 6 7 7 7 7 7 7 7 7 7 7 7 7 6 6 6 6 6 6 6 6 6 6 6 6 6 5 5 5 5 5 5 5 4 4 4 4 3 3
3 4 4 5 5 6 6 6 6 6 6 6 6 6 6 6 6 6 6 6 6 6 6 6 6 5 5 5 5 5 5 5 5 5 4 4 4 4 4 3 3 3 3
3 3 4 4 5 5 5 5 6 6 6 6 6 5 5 5 5 5 5 5 5 5 5 5 5 5 5 5 5 5 4 4 4 4 4 4 3 3 3 3 3 3 2
2 3 3 3 4 4 4 5 5 5 5 5 5 5 5 5 5 5 5 5 5 5 5 4 4 4 4 4 4 4 4 4 4 3 3 3 3 3 2 2 2 2 2
1 2 2 3 3 3 4 4 4 4 4 4 4 4 4 4 4 4 4 4 4 4 4 4 4 4 4 4 3 3 3 3 3 3 3 3 3 2 2 2 2 2 1
1 1 2 2 2 3 3 3 4 4 4 4 4 4 4 4 4 4 4 4 4 4 3 3 3 3 3 3 3 2 2 2 2 2 2 2 2 2 2 2 2 1 1
0 1 1 1 2 2 2 3 3 3 3 3 3 3 3 3 3 3 3 3 3 3 3 3 3 3 2 2 2 2 2 2 2 2 2 1 1 1 1 1 1 1 1
0 0 1 1 1 1 2 2 2 2 2 2 3 2 2 2 2 3 2 2 2 2 2 2 2 2 2 2 1 1 1 1 1 1 1 1 1 1 0 0 0 0 0
-0 -0 0 0 0 1 1 1 1 1 2 2 2 2 2 2 2 2 2 2 1 1 1 1 1 1 1 1 1 0 0 0 0 0 0 0 0 -0 -0 -0 -0 -0 -0
-1 -1 -0 -0 -0 -0 0 0 1 1 1 1 1 1 1 1 1 1 1 1 1 1 1 1 1 0 0 0 0 -0 -0 -1 -1 -0 -0 -0 -0 -0 -1 -1 -1 -1 -1
-1 -1 -1 -1 -1 -1 -0 -0 -0 -0 -0 -0 0 0 0 0 0 -0 -0 -0 -0 0 -0 -0 -0 -0 -0 -1 -1 -1 -1 -1 -1 -1 -1 -1 -1 -1 -1 -1 -1 -2 -2
-2 -2 -1 -1 -1 -1 -1 -1 -1 -1 -1 -1 -1 -1 -1 -1 -1 -1 -1 -1 -1 -1 -1 -1 -1 -1 -1 -1 -1 -1 -1 -1 -1 -1 -1 -1 -1 -1 -1 -2 -2 -2 -2
-2 -2 -2 -2 -2 -2 -2 -1 -1 -1 -1 -1 -1 -1 -1 -1 -1 -1 -1 -1 -1 -2 -2 -2 -2 -2 -2 -2 -2 -2 -2 -2 -2 -2 -2 -2 -2 -2 -2 -2 -2 -2 -2
-3 -3 -2 -2 -2 -2 -2 -2 -2 -2 -2 -2 -2 -2 -2 -2 -2 -2 -2 -2 -2 -2 -2 -2 -2 -2 -2 -2 -2 -2 -2 -2 -2 -3 -2 -2 -2 -2 -2 -2 -3 -3 -3
-3 -3 -3 -3 -3 -3 -3 -3 -3 -3 -3 -3 -3 -3 -3 -3 -3 -2 -3 -3 -3 -3 -3 -3 -3 -3 -3 -3 -3 -3 -3 -3 -3 -3 -3 -3 -3 -3 -3 -3 -3 -3 -3
Wind_Speed
2 3 3 4 5 6 6 6 7 6 6 5 4 4 3 3 2 3 5 5 5 5 5 4 3 3 2 2 2 2 3 2 1 2 2 3 2 2 2 3 3 4 5
2 2 2 3 4 6 6 6 6 6 5 4 3 3 3 3 2 3 4 4 5 5 4 4 3 3 3 3 2 2 2 1 1 2 1 2 3 3 2 2 2 3 4
5 3 3 3 4 5 6 6 6 6 5 5 5 5 4 3 2 2 1 2 4 4 4 4 4 3 3 3 2 2 3 2 1 1 2 2 2 2 3 2 2 3 2
3 3 3 3 3 3 3 4 6 6 5 6 6 7 4 3 3 2 2 2 3 4 4 4 4 3 2 3 3 2 2 3 2 0 1 1 2 1 2 3 2 3 3
4 3 3 3 2 2 3 4 5 5 5 5 6 6 4 3 2 2 3 2 2 3 4 4 4 3 2 2 2 2 2 2 2 2 1 1 1 1 2 3 3 3 2
3 2 1 2 2 2 2 4 5 5 5 5 5 5 6 5 5 3 3 2 1 2 2 3 3 3 2 2 2 2 2 2 2 2 2 2 1 1 2 2 3 4 3
3 3 2 3 3 2 2 4 5 5 4 5 5 5 5 6 6 4 4 3 2 1 1 2 3 3 3 3 3 3 2 2 2 2 1 1 1 1 2 2 2 3 3
3 3 3 3 3 3 3 4 5 5 5 5 4 4 5 4 3 3 3 3 2 2 2 3 3 3 3 3 3 2 1 1 2 1 1 1 1 1 2 2 1 3 3
2 3 2 2 3 3 3 4 5 5 5 5 4 4 4 4 4 3 3 2 1 2 3 3 3 3 3 3 2 1 2 2 1 1 1 1 1 1 2 1 2 2 3
1 1 1 2 2 3 3 3 4 5 4 5 4 3 4 4 4 4 3 2 2 2 3 2 2 2 2 2 2 1 1 2 1 1 1 1 1 1 1 1 1 2 3
1 1 1 1 2 2 3 3 3 3 3 4 4 4 3 4 4 3 3 2 2 2 3 2 2 2 2 1 1 1 2 2 1 1 1 2 1 1 1 1 1 2 2
0 0 0 1 2 2 3 3 3 3 3 3 4 4 3 4 4 3 2 3 2 2 2 2 2 2 2 2 2 2 2 2 2 2 2 2 1 2 1 1 2 2 2
1 1 2 2 1 2 2 2 2 3 3 4 4 4 3 3 3 3 2 2 2 2 2 2 1 1 2 2 2 2 2 2 3 3 3 3 2 2 2 2 2 2 2
1 1 1 1 1 1 1 2 2 2 3 4 4 4 3 3 3 3 3 2 2 2 1 1 1 1 1 1 2 2 2 2 2 2 2 3 3 3 3 2 2 2 2
1 1 1 1 1 2 1 2 2 2 3 4 4 3 2 3 3 3 2 2 2 2 1 1 1 1 0 1 1 2 2 2 2 2 2 2 3 4 3 3 2 2 2
2 1 1 1 1 1 0 1 2 2 3 3 3 3 3 3 3 3 3 3 2 2 1 1 1 0 1 2 2 1 1 1 2 2 2 2 3 4 4 4 4 3 3
2 2 1 1 1 1 1 1 2 2 3 3 3 3 3 3 3 3 3 3 2 1 1 1 1 1 2 3 3 2 1 1 2 2 2 3 3 4 2 3 4 4 5
2 2 2 1 1 0 1 1 2 3 3 3 3 3 3 3 3 3 3 2 2 1 1 0 0 1 2 3 3 3 1 1 2 2 2 3 3 3 3 2 3 3 4
3 2 2 1 0 1 1 2 2 3 3 3 2 2 3 4 3 3 2 2 2 1 0 0 0 1 2 4 4 3 1 1 2 2 2 2 3 5 5 3 4 5 4
2 2 1 1 1 1 2 3 2 2 2 2 2 2 3 3 3 3 2 2 2 1 1 1 1 1 2 3 4 3 1 2 3 2 2 4 4 6 6 3 3 5 5
2 1 1 1 0 1 3 3 2 1 1 1 2 2 2 3 3 3 2 2 2 2 1 1 1 1 2 3 4 4 1 2 3 3 3 3 6 7 6 5 3 6 5
2 1 1 1 1 1 3 2 1 0 1 2 3 2 2 2 3 3 2 2 2 2 1 1 1 2 2 3 4 5 5 4 3 3 3 4 6 7 7 5 6 7 5
1 1 1 1 2 1 2 2 0 1 2 3 3 2 3 2 2 3 2 2 1 1 0 0 1 2 2 3 4 5 5 6 4 3 5 5 6 6 5 6 6 5 3
1 1 1 1 1 2 1 1 1 2 3 3 2 2 3 2 2 1 1 1 1 1 0 1 1 2 3 3 3 3 3 4 4 4 4 5 5 4 4 5 4 3 2
1 1 1 1 1 1 1 1 1 2 3 2 2 2 2 2 2 1 1 1 1 2 1 2 2 2 3 4 6 5 4 3 4 3 2 2 2 3 3 3 3 2 2
1 1 1 1 1 1 1 1 0 2 3 2 2 2 2 1 1 1 1 1 1 2 2 3 3 3 5 7 8 8 8 8 6 3 2 2 3 3 3 3 3 3 3
Wind_Direction
183 142 142 140 135 136 144 152 149 148 145 140 141 142 147 143 129 121 130 135 134 137 132 127 119 118 123 130 127 115 90 53 37 54 17 359 8 23 21 16 21 20 20
166 144 132 132 146 154 157 158 159 155 155 153 143 130 129 132 126 113 111 129 136 143 148 140 137 131 127 116 118 123 122 79 54 97 80 357 341 349 357 358 9 5 7
187 181 158 158 149 158 165 168 163 156 153 138 120 106 92 83 94 112 129 128 141 144 142 144 139 137 142 155 157 149 144 147 59 72 129 140 244 298 322 337 351 349 349
186 179 171 166 168 173 159 154 153 149 146 140 145 149 153 161 177 164 155 125 130 135 138 137 135 135 135 157 173 154 155 148 155 97 64 145 170 187 303 314 329 331 320
185 180 180 177 165 153 149 148 142 141 143 145 151 150 141 133 123 126 134 127 97 109 128 136 133 126 121 139 141 142 142 148 162 162 154 104 62 162 201 278 305 318 296
180 175 145 130 111 97 121 139 139 138 141 143 145 149 145 136 134 141 148 143 118 83 104 123 118 115 111 124 133 129 130 135 142 148 154 159 174 201 204 248 287 296 291
169 169 145 139 131 124 139 144 141 138 141 145 147 150 148 148 156 162 165 158 152 149 150 110 113 113 113 111 114 115 127 141 144 158 173 173 192 194 195 229 278 290 292
166 185 191 172 162 154 156 153 150 145 144 148 150 144 140 144 149 153 157 165 174 166 144 119 114 113 114 113 112 118 143 131 156 160 175 189 211 201 201 202 250 299 298
175 197 195 176 171 166 173 172 160 151 151 151 141 137 140 140 140 139 137 141 136 136 131 124 124 116 115 119 123 158 161 149 172 188 203 214 225 215 219 205 203 226 283
181 204 182 181 185 179 168 158 159 159 155 149 148 148 146 139 133 129 134 136 133 125 129 127 128 125 122 121 124 156 160 150 177 201 215 243 240 231 226 222 223 220 235
216 225 220 187 167 146 142 143 147 138 141 146 141 136 135 130 130 135 143 135 128 138 149 150 148 151 149 146 153 183 188 175 199 219 235 257 245 236 232 225 223 232 233
344 10 43 84 99 121 132 138 141 142 145 143 138 134 128 126 129 134 134 124 124 135 143 144 160 173 176 183 189 204 213 207 218 238 245 261 270 263 244 230 242 246 241
30 40 54 82 103 119 124 131 140 143 132 127 125 123 127 134 138 136 125 123 122 116 119 135 171 202 201 204 207 206 220 227 226 227 238 251 245 260 259 248 250 255 268
23 49 47 50 77 100 121 125 126 131 130 127 125 128 139 144 139 126 123 125 125 121 120 137 164 198 222 217 207 202 222 241 246 236 237 241 235 241 246 252 249 256 276
9 42 50 41 54 60 79 100 113 123 129 129 129 135 135 130 122 117 116 111 110 110 111 100 80 67 202 219 203 207 226 240 270 270 255 256 258 261 259 266 259 257 272
313 320 346 23 36 47 71 112 118 124 123 128 132 125 120 122 123 123 117 103 93 86 86 90 98 16 305 292 281 262 232 247 261 279 288 288 283 283 283 287 280 269 273
287 289 278 259 264 252 186 166 159 129 123 127 127 125 123 119 116 117 111 107 96 84 77 48 52 332 303 302 296 295 299 263 268 268 277 295 298 306 290 301 310 302 296
279 293 294 293 312 7 83 107 116 123 123 122 122 124 125 125 121 118 117 116 118 110 79 23 354 346 314 319 319 318 343 295 278 266 257 264 277 287 293 294 300 296 296
282 285 287 287 51 58 95 105 104 109 113 120 128 134 135 136 134 131 126 124 121 104 84 99 44 350 315 317 323 332 334 301 293 286 275 270 274 288 291 293 293 301 303
320 321 333 32 75 39 110 112 112 108 119 136 137 132 134 138 142 143 139 128 126 120 91 25 15 322 307 319 325 336 312 300 301 300 290 286 289 294 295 285 283 294 299
335 345 21 64 70 108 112 114 111 137 173 122 115 114 122 128 131 123 123 126 120 105 92 53 353 332 324 327 324 328 323 279 291 298 301 297 300 298 297 294 277 282 295
353 4 46 38 16 93 118 118 125 164 112 105 107 110 108 110 112 113 108 114 122 114 94 59 357 339 329 331 327 328 321 310 290 287 288 293 304 307 308 308 304 305 310
343 354 69 56 19 52 122 135 184 111 107 103 105 107 98 95 111 124 123 110 110 115 65 355 328 328 329 326 326 325 321 314 304 284 286 296 306 309 309 306 311 321 318
346 359 58 69 8 13 63 116 132 119 119 120 121 118 111 101 92 103 121 132 148 164 238 289 307 314 317 314 315 321 320 316 310 300 300 302 307 314 314 315 319 319 296
332 1 74 100 333 14 58 63 112 128 126 128 131 124 121 125 113 96 118 156 219 216 244 254 261 284 296 298 310 315 309 305 293 302 301 316 321 325 321 318 313 308 308
338 13 28 53 360 27 45 26 133 144 141 140 144 143 138 136 130 114 50 11 325 320 322 308 298 296 296 306 310 310 309 308 304 304 295 300 304 303 307 310 312 310 310
Height
1496 1499 1501 1504 1507 1510 1513 1515 1518 1521 1523 1525 1527 1529 1532 1534 1536 1538 1540 1542 1543 1544 1545 1546 1547 1548 1548 1548 1549 1549 1549 1549 1549 1549 1549 1549 1548 1548 1548 1547 1547 1546 1545
1494 1497 1499 1502 1505 1508 1510 1513 1516 1519 1521 1523 1525 1528 1530 1532 1534 1536 1538 1540 1542 1543 1543 1544 1545 1545 1546 1546 1546 1547 1547 1547 1547 1547 1546 1546 1547 1546 1546 1545 1545 1544 1543
1492 1495 1497 1500 1503 1506 1509 1511 1514 1516 1519 1521 1523 1526 1528 1530 1532 1533 1535 1537 1539 1540 1541 1542 1543 1543 1543 1543 1544 1544 1544 1544 1545 1545 1545 1545 1543 1543 1543 1542 1542 1541 1540
1491 1493 1495 1498 1501 1504 1506 1509 1512 1514 1517 1519 1521 1522 1524 1526 1529 1531 1532 1534 1536 1538 1539 1540 1540 1541 1541 1541 1542 1542 1542 1542 1542 1543 1542 1543 1542 1542 1539 1539 1539 1538 1537
1489 1491 1494 1496 1499 1502 1504 1507 1509 1512 1514 1516 1518 1520 1522 1525 1527 1529 1530 1532 1534 1535 1536 1537 1538 1538 1539 1539 1539 1540 1540 1540 1540 1540 1540 1540 1540 1539 1538 1535 1534 1534 1533
1487 1490 1492 1495 1497 1499 1502 1504 1507 1509 1512 1514 1516 1518 1520 1522 1524 1526 1528 1529 1531 1532 1534 1535 1535 1536 1536 1536 1537 1537 1537 1537 1537 1537 1537 1537 1537 1536 1535 1533 1531 1529 1529
1485 1487 1490 1492 1495 1497 1499 1502 1504 1507 1509 1511 1513 1515 1518 1520 1522 1523 1525 1526 1528 1529 1530 1532 1532 1533 1534 1534 1534 1535 1535 1535 1535 1534 1534 1534 1534 1533 1532 1531 1529 1526 1525
1483 1485 1488 1490 1492 1495 1497 1499 1502 1504 1507 1509 1511 1513 1515 1517 1519 1521 1523 1524 1525 1526 1528 1529 1530 1530 1531 1531 1531 1532 1532 1532 1532 1531 1531 1530 1530 1530 1529 1528 1527 1524 1521
1482 1483 1485 1488 1490 1492 1495 1497 1500 1502 1504 1507 1509 1511 1513 1515 1517 1519 1520 1522 1523 1524 1525 1526 1527 1527 1528 1528 1528 1529 1529 1529 1529 1528 1528 1527 1527 1527 1526 1525 1524 1524 1520
1480 1482 1483 1486 1488 1490 1493 1495 1497 1500 1502 1504 1506 1508 1510 1512 1514 1516 1517 1519 1520 1521 1522 1523 1524 1525 1525 1525 1525 1526 1526 1526 1526 1525 1525 1524 1523 1523 1522 1522 1521 1520 1519
1478 1480 1481 1483 1486 1488 1490 1492 1495 1497 1499 1501 1503 1505 1507 1509 1511 1513 1515 1516 1518 1519 1519 1520 1521 1521 1522 1522 1522 1522 1523 1522 1522 1521 1521 1521 1520 1519 1518 1518 1517 1517 1515
1478 1479 1480 1481 1483 1485 1487 1490 1492 1494 1497 1499 1501 1503 1504 1506 1508 1510 1512 1513 1515 1516 1516 1517 1518 1518 1519 1519 1519 1519 1519 1519 1519 1518 1518 1517 1516 1515 1515 1514 1513 1513 1512
1477 1478 1479 1480 1481 1483 1485 1487 1490 1492 1494 1496 1498 1500 1502 1504 1505 1507 1508 1510 1511 1512 1513 1514 1515 1515 1515 1515 1516 1516 1515 1515 1515 1514 1514 1513 1513 1512 1511 1510 1509 1508 1508
1476 1477 1477 1478 1480 1481 1483 1485 1487 1490 1492 1494 1495 1497 1499 1501 1503 1504 1506 1507 1509 1510 1510 1511 1511 1512 1512 1512 1512 1512 1512 1511 1511 1510 1510 1510 1509 1508 1507 1507 1506 1505 1504
1476 1476 1477 1477 1478 1480 1481 1483 1485 1487 1489 1491 1493 1495 1497 1498 1500 1502 1503 1504 1506 1507 1507 1508 1508 1508 1509 1509 1508 1508 1508 1507 1507 1506 1506 1506 1505 1505 1504 1503 1502 1502 1500
1475 1476 1476 1476 1477 1478 1479 1481 1483 1485 1487 1488 1490 1492 1494 1495 1497 1499 1500 1502 1503 1503 1504 1504 1504 1505 1505 1505 1505 1505 1504 1503 1503 1503 1502 1502 1502 1501 1501 1500 1499 1498 1497
1474 1474 1475 1475 1476 1477 1478 1479 1480 1482 1484 1486 1487 1489 1491 1492 1494 1496 1497 1499 1499 1500 1501 1501 1501 1501 1501 1502 1501 1501 1501 1500 1500 1499 1498 1498 1498 1497 1497 1496 1495 1494 1493
1473 1473 1473 1474 1475 1475 1476 1477 1479 1480 1482 1483 1485 1486 1488 1489 1491 1493 1494 1495 1496 1497 1497 1498 1498 1498 1498 1498 1498 1497 1497 1496 1496 1496 1495 1494 1494 1493 1493 1492 1491 1489 1488
1472 1472 1472 1473 1473 1474 1474 1475 1476 1478 1479 1481 1482 1484 1485 1486 1488 1489 1491 1492 1493 1494 1494 1495 1495 1494 1494 1494 1494 1494 1493 1493 1492 1492 1491 1491 1490 1490 1489 1488 1486 1485 1483
1471 1471 1471 1471 1472 1472 1473 1474 1475 1476 1477 1479 1480 1481 1483 1484 1485 1486 1488 1489 1490 1490 1491 1491 1491 1491 1491 1491 1491 1491 1490 1489 1488 1488 1487 1487 1486 1486 1485 1484 1483 1480 1478
1469 1469 1470 1470 1470 1471 1471 1472 1473 1474 1476 1477 1478 1479 1480 1481 1483 1484 1485 1486 1487 1487 1488 1488 1488 1488 1488 1487 1487 1487 1487 1486 1485 1484 1483 1483 1483 1482 1482 1481 1479 1477 1475
1468 1468 1468 1468 1469 1469 1470 1470 1471 1472 1473 1474 1475 1477 1478 1479 1480 1481 1482 1483 1484 1484 1484 1485 1485 1485 1485 1484 1484 1484 1484 1483 1482 1481 1480 1479 1479 1479 1477 1476 1475 1473 1472
1466 1467 1467 1467 1467 1468 1468 1468 1469 1470 1471 1472 1473 1474 1475 1477 1478 1479 1480 1480 1481 1482 1482 1482 1482 1482 1482 1481 1481 1481 1480 1479 1479 1477 1477 1476 1475 1474 1473 1472 1471 1469 1467
1465 1466 1466 1465 1465 1466 1466 1467 1467 1468 1469 1470 1471 1472 1473 1474 1476 1477 1478 1478 1479 1479 1479 1479 1479 1479 1479 1478 1478 1477 1477 1476 1475 1474 1473 1472 1471 1470 1469 1468 1467 1465 1464
1464 1465 1464 1464 1464 1465 1465 1466 1466 1467 1467 1468 1469 1470 1471 1472 1473 1475 1475 1476 1477 1477 1478 1477 1477 1476 1475 1475 1475 1474 1473 1472 1471 1470 1469 1468 1467 1466 1465 1464 1463 1461 1460
1463 1463 1463 1462 1463 1463 1463 1464 1465 1465 1465 1466 1467 1468 1469 1470 1471 1472 1473 1474 1475 1475 1475 1475 1475 1474 1474 1473 1472 1471 1470 1469 1468 1466 1465 1464 1463 1462 1461 1460 1459 1458 1456